| time (UTC) | temp F | wind direction | speed MPH | gust MPH | rain 1hr in | rain 24hr in | rain mn in | humidity % | barometer mb |
| 20260504081549 | 52 | 135 | 0.0 | 0.0 | 0.00 | 0.00 | 0.00 | 45 | 994.7 |
| 20260504044532 | 62 | 282 | 5.0 | 0.0 | 0.00 | 0.00 | 0.00 | 33 | 994.5 |
| 20260504043030 | 62 | 259 | 4.0 | 0.0 | 0.00 | 0.00 | 0.00 | 33 | 994.5 |
| 20260504041527 | 62 | 206 | 2.0 | 0.0 | 0.00 | 0.00 | 0.00 | 33 | 995.0 |
| 20260504040026 | 63 | 219 | 4.0 | 0.0 | 0.00 | 0.00 | 0.00 | 33 | 995.3 |
| 20260504034526 | 63 | 222 | 5.0 | 0.0 | 0.00 | 0.00 | 0.00 | 33 | 995.4 |
| 20260504033025 | 63 | 212 | 5.0 | 0.0 | 0.00 | 0.00 | 0.00 | 33 | 995.4 |
| 20260504031528 | 63 | 152 | 3.0 | 0.0 | 0.00 | 0.00 | 0.00 | 33 | 996.1 |
| 20260504030024 | 63 | 173 | 4.0 | 0.0 | 0.00 | 0.00 | 0.00 | 34 | 996.0 |
| 20260504024524 | 62 | 159 | 2.0 | 0.0 | 0.00 | 0.00 | 0.00 | 34 | 996.4 |
| 20260504023024 | 62 | 179 | 1.0 | 0.0 | 0.00 | 0.00 | 0.00 | 35 | 996.4 |
| 20260504021527 | 62 | 188 | 1.0 | 0.0 | 0.00 | 0.00 | 0.00 | 35 | 996.4 |
| 20260504020028 | 63 | 118 | 1.0 | 0.0 | 0.00 | 0.00 | 0.00 | 34 | 996.4 |
| 20260504014539 | 63 | 175 | 2.0 | 0.0 | 0.00 | 0.00 | 0.00 | 34 | 995.9 |
| 20260504013022 | 65 | 108 | 3.0 | 0.0 | 0.00 | 0.00 | 0.00 | 32 | 995.9 |
| 20260504011522 | 65 | 98 | 4.0 | 0.0 | 0.00 | 0.00 | 0.00 | 31 | 996.0 |
| 20260504010021 | 66 | 58 | 3.0 | 0.0 | 0.00 | 0.00 | 0.00 | 31 | 996.0 |
| 20260504004521 | 66 | 36 | 4.0 | 0.0 | 0.00 | 0.00 | 0.00 | 30 | 996.2 |
| 20260504003020 | 67 | 281 | 4.0 | 0.0 | 0.00 | 0.00 | 0.00 | 30 | 996.3 |
| 20260504001522 | 67 | 342 | 3.0 | 0.0 | 0.00 | 0.00 | 0.00 | 30 | 996.8 |
| 20260504000037 | 67 | 62 | 4.0 | 0.0 | 0.00 | 0.00 | 0.00 | 29 | 996.5 |
| 20260503234519 | 67 | 296 | 4.0 | 0.0 | 0.00 | 0.00 | 0.00 | 29 | 995.9 |
| 20260503233021 | 68 | 2 | 6.0 | 0.0 | 0.00 | 0.00 | 0.00 | 29 | 995.5 |
| 20260503231518 | 69 | 328 | 1.0 | 0.0 | 0.00 | 0.00 | 0.00 | 27 | 995.6 |
| 20260503230018 | 69 | 306 | 4.0 | 0.0 | 0.00 | 0.00 | 0.00 | 26 | 995.5 |
| 20260503224518 | 69 | 316 | 7.0 | 0.0 | 0.00 | 0.00 | 0.00 | 26 | 995.5 |
| 20260503223017 | 70 | 302 | 7.0 | 0.0 | 0.00 | 0.00 | 0.00 | 26 | 995.2 |
| 20260503221517 | 72 | 268 | 8.0 | 0.0 | 0.00 | 0.00 | 0.00 | 24 | 995.1 |
| 20260503220020 | 72 | 313 | 6.0 | 0.0 | 0.00 | 0.00 | 0.00 | 24 | 995.9 |
| 20260503214524 | 72 | 309 | 8.0 | 0.0 | 0.00 | 0.00 | 0.00 | 23 | 995.7 |
| 20260503213015 | 73 | 322 | 7.0 | 0.0 | 0.00 | 0.00 | 0.00 | 21 | 995.6 |
| 20260503211515 | 76 | 288 | 3.0 | 0.0 | 0.00 | 0.00 | 0.00 | 19 | 995.4 |
| 20260503210036 | 75 | 18 | 2.0 | 0.0 | 0.00 | 0.00 | 0.00 | 19 | 995.9 |
| 20260503204513 | 74 | 252 | 3.0 | 0.0 | 0.00 | 0.00 | 0.00 | 20 | 996.0 |
| 20260503203014 | 74 | 171 | 2.0 | 0.0 | 0.00 | 0.00 | 0.00 | 20 | 996.9 |
| 20260503201511 | 71 | 137 | 5.0 | 0.0 | 0.00 | 0.00 | 0.00 | 20 | 996.9 |
| 20260503200015 | 73 | 81 | 2.0 | 0.0 | 0.00 | 0.00 | 0.00 | 20 | 997.1 |
| 20260503194510 | 73 | 110 | 3.0 | 0.0 | 0.00 | 0.00 | 0.00 | 20 | 997.4 |
| 20260503193011 | 72 | 311 | 3.0 | 0.0 | 0.00 | 0.00 | 0.00 | 20 | 997.5 |
| 20260503191509 | 74 | 40 | 2.0 | 0.0 | 0.00 | 0.00 | 0.00 | 21 | 997.4 |
| 20260503190008 | 76 | 139 | 2.0 | 0.0 | 0.00 | 0.00 | 0.00 | 19 | 997.2 |
| 20260503184508 | 77 | 342 | 1.0 | 0.0 | 0.00 | 0.00 | 0.00 | 20 | 998.2 |
| 20260503183001 | 73 | 294 | 2.0 | 0.0 | 0.00 | 0.00 | 0.00 | 21 | 998.8 |
| 20260503181600 | 72 | 69 | 2.0 | 0.0 | 0.00 | 0.00 | 0.00 | 23 | 999.1 |
| 20260503180108 | 71 | 123 | 4.0 | 0.0 | 0.00 | 0.00 | 0.00 | 22 | 1000.0 |
| 20260503174557 | 68 | 65 | 4.0 | 0.0 | 0.00 | 0.00 | 0.00 | 26 | 1000.5 |
| 20260503173149 | 67 | 113 | 4.0 | 0.0 | 0.00 | 0.00 | 0.00 | 27 | 1000.9 |
| 20260503171556 | 68 | 67 | 1.0 | 0.0 | 0.00 | 0.00 | 0.00 | 27 | 1000.6 |